AirNav   ATP
 
 352 users online  

N88 Kecks Airport
Julian, North Carolina, USA

GOING TO JULIAN?


FAA INFORMATION EFFECTIVE 13 SEPTEMBER 2018

Location

FAA Identifier: N88
Lat/Long: 35-55-35.4900N / 079-37-39.0900W
35-55.591500N / 079-37.651500W
35.9265250 / -79.6275250
(estimated)
Elevation: 724 ft. / 220.7 m (surveyed)
Variation: 06W (1985)
From city: 2 miles NE of JULIAN, NC
Time zone: UTC -4 (UTC -5 during Standard Time)
Zip code: 27283

Airport Operations

Airport use: Open to the public
Activation date: 07/1953
Control tower: no
ARTCC: ATLANTA CENTER
FSS: RALEIGH FLIGHT SERVICE STATION
NOTAMs facility: RDU (NOTAM-D service available)
Attendance: UNATNDD
Wind indicator: yes
Segmented circle: no

Airport Communications

CTAF: 122.9
WX ASOS at BUY (11 nm NE): 135.325 (336-570-9813)
WX AWOS-3 at SCR (15 nm SE): 125.775 (919-663-1252)
WX ASOS at GSO (18 nm NW): PHONE 336-393-0168

Nearby radio navigation aids

VOR radial/distance  VOR name  Freq  Var
LIBr357/6.9LIBERTY VORTAC113.0003W
GSOr116/18.4GREENSBORO VORTAC116.2003W

 
NDB name  Hdg/Dist  Freq  Var  ID
ALAMM222/3.736108WHB .... -...
SLAMMER174/28.142307WSIF ... .. ..-.
PERSON244/32.922008WHUR .... ..- .-.

Airport Services

Parking: tiedowns
Airframe service: NONE
Powerplant service: NONE
Bottled oxygen: NONE
Bulk oxygen: NONE

Runway Information

Runway 5/23

Dimensions: 1400 x 75 ft. / 427 x 23 m
Surface: turf, in good condition
RUNWAY 5  RUNWAY 23
Traffic pattern: leftleft
Obstructions: 36 ft. trees, 640 ft. from runway, 49 ft. right of centerline, 17:1 slope to clear36 ft. pline, 776 ft. from runway, 21:1 slope to clear
PLINE 780 FT FM THR.

Airport Ownership and Management from official FAA records

Ownership: Privately-owned
Owner: L. R. KECK
2416 N.C. 62E
JULIAN, NC 27283
Phone (336) 317-4397
Manager: MICKEY. KECK
2131 N.C. 62E
JULIAN, NC 27283
Phone (336) 317-4397

Airport Operational Statistics

Aircraft based on the field: 1
Single engine airplanes: 1
    
Aircraft operations: avg 27/month *
62% transient general aviation
38% local general aviation
* for 12-month period ending 17 July 2018

Additional Remarks

BLDGS ON NW EDGE OF RY.
AGRICULTURAL EQUIPMENT OCNLY ON RY.
4' LIVESTOCK FENCE BELOW RWY GRADE ACROSS END OF EACH RWY
ARPT IN TRFC PAT OF CAUSEY ARPT 2A5 (1 MI NW) CTAF: 122.8
RWY 5/23 CLSD INDEFLY.

Instrument Procedures

There are no published instrument procedures at N88.

Some nearby airports with instrument procedures:

2A5 - Causey Airport (1 nm SE)
KBUY - Burlington-Alamance Regional Airport (11 nm NE)
KSCR - Siler City Municipal Airport (15 nm SE)
KGSO - Piedmont Triad International Airport (18 nm NW)
KHBI - Asheboro Regional Airport (21 nm SW)
 
Loc | Ops | Rwys | IFR | FBO | Links
Com | Nav | Svcs | Stats | Notes


 
Area around N88 (Kecks Airport)
 
Road maps at: MapQuest Bing Google
 
Aerial photo
No photo
 
Sectional chart

 
Airport distance calculator
Flying to Kecks Airport? Find the distance to fly.

From to N88

Sunrise and sunset
Times for 22-Sep-2018
 Local
(UTC-4)
 Zulu
(UTC)
Morning civil twilight06:4210:42
Sunrise07:0711:07
Sunset19:1523:15
Evening civil twilight19:4123:41

Current date and time
Zulu (UTC)  22-Sep-2018 06:47:50
Local (UTC-4)  22-Sep-2018 02:47:50
 
METAR
KBUY 
11nm NE 
220554Z AUTO 00000KT 10SM CLR 21/19 A3012 RMK AO2 SLP193 T02110194 10244 20211 58007
KSCR 
15nm SE 
220625Z AUTO 00000KT 10SM CLR 20/19 A3013 RMK AO2 T02020193
KGSO 
19nm NW 
220554Z 22006KT 10SM FEW250 22/21 A3013 RMK AO2 SLP192 T02170206 10256 20217 58008
KHBI 
21nm SW 
220640Z AUTO 20004KT 10SM CLR 23/20 A3015 RMK AO2 T02250200
TAF
KGSO 
19nm NW 
220531Z 2206/2306 21006KT P6SM FEW250 FM221600 VRB04KT P6SM SCT040 SCT250 TEMPO 2222/2302 P6SM -TSRA BKN040CB FM230300 07008KT P6SM VCSH OVC030 FM230500 06008KT P6SM OVC015
NOTAMs
Click for the latest NOTAMs
NOTAMs are issued by the DoD/FAA and will open in a separate window not controlled by AirNav.

 

 
 

Would you like to see your business listed on this page?

 If your business provides an interesting product or service to pilots, flight crews, aircraft, or users of the Kecks Airport, you should consider listing it here.  To start the listing process, click on the button below
 
Add a business
 

Other Pages about Kecks Airport

Update a link
 
Copyright © AirNav, LLC. All rights reserved. Privacy Policy  Contact